Location: Hurstbourne Priors
(51.2000°N, 1.3667°W)
Time: 03:12:26
(UTC+00:00)

N. Korean satellite - Visible Passes

Search period start: 26 February 2021 00:00
Search period end: 08 March 2021 00:00
Orbit: 451 x 503 km, 97.2° (Epoch: 25 February)

Date Brightness Start Highest point End Pass type
(mag) Time Alt. Az. Time Alt. Az. Time Alt. Az.
26 Feb 9.8 04:32:46 10° ENE 04:34:41 14° E 04:36:36 10° ESE visible
26 Feb 6.6 06:04:54 10° N 06:08:17 51° WNW 06:11:43 10° SSW visible
27 Feb 6.7 05:38:05 10° NNE 05:41:36 76° ESE 05:45:07 10° S visible
28 Feb 8.2 05:11:31 10° NNE 05:14:48 36° E 05:18:06 10° SSE visible
01 Mar 9.4 04:45:18 10° NE 04:47:54 19° E 04:50:31 10° SE visible
02 Mar 10.1 04:20:26 10° E 04:20:54 10° E 04:21:21 10° E visible
02 Mar 6.4 05:51:09 10° N 05:54:40 75° WNW 05:58:13 10° SSW visible
03 Mar 7.4 05:24:26 10° NNE 05:27:54 52° E 05:31:23 10° S visible
04 Mar 8.9 04:57:59 10° NE 05:01:02 26° E 05:04:05 10° SSE visible
05 Mar 9.8 04:32:03 10° NE 04:34:04 14° E 04:36:04 10° SE visible
05 Mar 6.7 06:04:12 10° N 06:07:40 52° WNW 06:11:09 10° SSW visible
06 Mar 6.7 05:37:22 10° NNE 05:40:55 76° ESE 05:44:30 10° S visible
07 Mar 8.2 05:10:44 10° NNE 05:14:04 36° E 05:17:26 10° SSE visible
